Regional Weather Roundup
Issued by NWS Bismarck, ND

Home | Current Version | Previous Version | Text Only | Print | Product List | Glossary On
Versions: 1 2 3 4 5 6 7 8 9 10 11 12 13 14 15 16 17 18 19 20 21 22 23 24 25 26 27 28 29 30 31 32 33 34 35 36 37 38 39 40 41 42 43 44 45 46 47 48 49 50
000
ASUS43 KBIS 221820
RWRBIS

NWR BROADCAST TEXT
NATIONAL WEATHER SERVICE BISMARCK ND
100 PM CDT MON SEP 22 2014

NOTE: "FAIR" INDICATES FEW OR NO CLOUDS BELOW 12,000 FEET WITH NO
SIGNIFICANT WEATHER AND/OR OBSTRUCTIONS TO VISIBILITY.


CITY           SKY/WX    TMP DP  RH WIND       PRES   REMARKS
WILLISTON      SUNNY     74  43  32 SE8       29.96F
MINOT          SUNNY     75  42  30 SE14      30.02F
MINOT AFB      SUNNY     76  43  31 S15       30.01F
BISMARCK       SUNNY     78  45  30 S17       30.05F
DICKINSON      SUNNY     72  47  40 SE12      29.99F
GARRISON         N/A     72  47  40 SE13      30.03F
HETTINGER ARPT PTSUNNY   67  44  43 SE16      30.02F
JAMESTOWN      SUNNY     74  44  34 S13       30.10F
BEACH            N/A     72  45  37 SE14      29.98F
CARRINGTON     FAIR      75  43  31 MISG      30.10F
CROSBY         FAIR      75  43  31 SE9       29.97F
HARVEY         FAIR      77  39  25 S16       30.06F
HAZEN          FAIR      75  48  38 SE13      30.02F
LINTON         FAIR      79  46  31 S17G25    30.06F
MANDAN         FAIR      77  45  31 SE16G23   30.04F
OAKES            N/A     73  46  38 S16G22    30.14F
RUGBY          FAIR      75  41  29 S8        30.05F
STANLEY        FAIR      72  46  40 SE10G17   30.01F
TIOGA          FAIR      73  45  35 SE14      30.02F
WATFORD CITY   FAIR      73  45  35 E7        29.95F
$$

CITY           SKY/WX    TMP DP  RH WIND       PRES   REMARKS
GRAND FORKS    SUNNY     75  49  39 SW8       30.10F
GRAND FORKS AF SUNNY     76  49  38 SW9       30.11F
DEVILS LAKE    SUNNY     73  46  38 SW7       30.07F
FARGO          SUNNY     73  49  42 SW15      30.14F
CANDO          FAIR      73  45  35 S5        30.08F
CAVALIER       FAIR      75  48  38 W8G16     30.06F
GRAFTON        FAIR      73  48  40 W8        30.07F
GWINNER        CLEAR     73  48  40 SW13      30.16F
LANGDON        FAIR      75  45  33 W13       30.08F
ROLLA          FAIR      72  43  35 SW9       30.08F
WALHALLA       FAIR      75  45  33 W9        30.06F
$$

CITY           SKY/WX    TMP DP  RH WIND       PRES   REMARKS
ABERDEEN       SUNNY     74  47  38 S13       30.15F
MOBRIDGE       MOSUNNY   77  49  37 S18G24    30.05F
BUFFALO          N/A     72  46  39 S14       29.93F
RAPID CITY     SUNNY     75  46  35 S21G28    30.00F
GLASGOW        SUNNY     70  44  39 SE14G21   29.91F
SIDNEY         SUNNY     77  46  33 E5        29.95F
WOLF POINT     SUNNY     75  47  36 E8        29.92F
GLENDIVE       SUNNY     75  46  35 SE3       29.95F
MILES CITY     MOSUNNY   72  46  39 SE8       29.92F
BAKER          PTSUNNY   67  44  43 SE13      29.98F
$$

CITY           SKY/WX    TMP DP  RH WIND       PRES   REMARKS
BILLINGS       PTSUNNY   73  51  46 S9        29.96F
GREAT FALLS    MOSUNNY   76  50  40 W12       29.92F
REGINA         SUNNY     73  46  38 SE14      29.93F
ESTEVAN        SUNNY     75  46  35 S3        29.98F
$$




USA.gov is the U.S. government's official web portal to all federal, state and local government web resources and services.